DW8785 Weather Reports


time (UTC)temp
C
wind
direction
speed
KPH
gust
KPH
rain 1hr
cm
rain 24hr
cm
rain mn
cm
humidity
%
barometer
mb
20260904090027 26 195 1.6 0.0 0.00 0.00 0.00 42 1015.4
20260904084523 26 154 3.2 0.0 0.00 0.00 0.00 44 1015.6
20260904083026 25 357 4.8 0.0 0.00 0.00 0.00 48 1015.5
20260904081515 26 148 0.0 0.0 0.00 0.00 0.00 50 1015.4
20260904080010 26 64 0.0 0.0 0.00 0.00 0.00 49 1015.3
20260904074507 25 155 0.0 0.0 0.00 0.00 0.00 51 1015.2
20260904073001 25 112 0.0 0.0 0.00 0.00 0.00 51 1015.2
20260904071625 25 71 0.0 0.0 0.00 0.00 0.00 51 1015.1
20260904070105 25 59 0.0 0.0 0.00 0.00 0.00 51 1015.1
20260904064604 24 64 0.0 0.0 0.00 0.00 0.00 51 1015.1
20260904063050 25 134 0.0 0.0 0.00 0.00 0.00 52 1015.0
20260904061539 24 155 0.0 0.0 0.00 0.00 0.00 52 1014.9
20260904060034 24 134 0.0 0.0 0.00 0.00 0.00 52 1014.9
20260904054535 23 134 0.0 0.0 0.00 0.00 0.00 53 1015.0
20260904053025 23 134 0.0 0.0 0.00 0.00 0.00 54 1015.0
20260904051522 23 134 0.0 0.0 0.00 0.00 0.00 54 1014.9
20260904050018 23 134 0.0 0.0 0.00 0.00 0.00 55 1014.9
20260904044514 22 134 0.0 0.0 0.00 0.00 0.00 55 1014.9
20260904043009 23 134 0.0 0.0 0.00 0.00 0.00 55 1014.9
20260904041513 23 134 0.0 0.0 0.00 0.00 0.00 55 1014.7
20260904040001 23 134 0.0 0.0 0.00 0.00 0.00 54 1014.7
20260904034556 23 134 0.0 0.0 0.00 0.00 0.00 54 1014.6
20260904033058 23 134 0.0 0.0 0.00 0.00 0.00 54 1014.7
20260904031601 23 134 0.0 0.0 0.00 0.00 0.00 54 1014.6
20260904030044 23 133 0.0 0.0 0.00 0.00 0.00 54 1014.4
20260904024544 23 133 0.0 0.0 0.00 0.00 0.00 54 1014.5
20260904023043 23 133 0.0 0.0 0.00 0.00 0.00 54 1014.5
20260904021550 23 133 0.0 0.0 0.00 0.00 0.00 53 1014.5
20260904020043 23 133 0.0 0.0 0.00 0.00 0.00 53 1014.4
20260904014544 23 133 0.0 0.0 0.00 0.00 0.00 53 1014.2
20260904013040 23 133 0.0 0.0 0.00 0.00 0.00 53 1014.3
20260904011540 23 133 0.0 0.0 0.00 0.00 0.00 53 1014.4
20260904010039 23 133 0.0 0.0 0.00 0.00 0.00 54 1014.5
20260904004537 23 133 0.0 0.0 0.00 0.00 0.00 54 1014.6
20260904003035 23 133 0.0 0.0 0.00 0.00 0.00 53 1014.6
20260904001537 23 133 0.0 0.0 0.00 0.00 0.00 53 1014.9
20260904000033 23 133 0.0 0.0 0.00 0.00 0.00 54 1015.0
20260903234531 23 133 0.0 0.0 0.00 0.00 0.00 54 1015.0
20260903233034 22 133 0.0 0.0 0.00 0.00 0.00 55 1015.0
20260903231530 23 133 0.0 0.0 0.00 0.00 0.00 54 1015.0
20260903230028 23 133 0.0 0.0 0.00 0.00 0.00 53 1014.9
20260903224530 23 133 0.0 0.0 0.00 0.00 0.00 53 1014.9
20260903223020 23 133 0.0 0.0 0.00 0.00 0.00 53 1014.8
20260903221534 23 133 0.0 0.0 0.00 0.00 0.00 53 1014.9
20260903220012 23 133 0.0 0.0 0.00 0.00 0.00 53 1014.8
20260903214507 23 133 0.0 0.0 0.00 0.00 0.00 53 1014.8
20260903213008 23 133 0.0 0.0 0.00 0.00 0.00 53 1014.8
20260903211558 23 133 0.0 0.0 0.00 0.00 0.00 55 1014.8
20260903210056 23 133 0.0 0.0 0.00 0.00 0.00 59 1014.8
20260903204555 23 133 0.0 0.0 0.00 0.00 0.00 60 1014.8
20260903203052 23 133 0.0 0.0 0.00 0.00 0.00 60 1014.8
20260903201542 23 133 0.0 0.0 0.00 0.00 0.00 57 1014.9
20260903200045 23 133 0.0 0.0 0.00 0.00 0.00 55 1014.8
20260903194541 23 130 0.0 0.0 0.00 0.00 0.00 54 1014.8
20260903193035 23 123 0.0 0.0 0.00 0.00 0.00 54 1014.6
20260903191533 23 124 0.0 0.0 0.00 0.00 0.00 52 1014.6
20260903190024 23 52 0.0 0.0 0.00 0.00 0.00 52 1014.6
20260903184519 23 52 0.0 0.0 0.00 0.00 0.00 52 1014.5
20260903183020 23 52 0.0 0.0 0.00 0.00 0.00 52 1014.3
20260903181510 23 44 0.0 0.0 0.00 0.00 0.00 52 1014.2
20260903180013 23 42 0.0 0.0 0.00 0.00 0.00 52 1014.0
20260903174502 24 44 0.0 0.0 0.00 0.00 0.00 52 1014.0
20260903173059 24 42 0.0 0.0 0.00 0.00 0.00 51 1013.9
20260903171556 24 44 0.0 0.0 0.00 0.00 0.00 51 1014.1
20260903170049 25 44 0.0 0.0 0.00 0.00 0.00 51 1013.8
20260903164546 25 24 0.0 0.0 0.00 0.00 0.00 51 1013.7
20260903163044 25 54 3.2 0.0 0.00 0.00 0.00 49 1013.6
20260903161534 25 88 3.2 0.0 0.00 0.00 0.00 49 1013.9
20260903160031 25 55 4.8 0.0 0.00 0.00 0.00 48 1013.9
20260903154526 25 66 4.8 0.0 0.00 0.00 0.00 48 1014.0
20260903153027 25 34 1.6 0.0 0.00 0.00 0.00 48 1014.1
20260903151524 26 32 3.2 0.0 0.00 0.00 0.00 49 1013.9
20260903150014 25 32 4.8 0.0 0.00 0.00 0.00 50 1014.0
20260903144508 26 52 4.8 0.0 0.00 0.00 0.00 48 1014.0
20260903143010 26 13 1.6 0.0 0.00 0.00 0.00 47 1014.1
20260903141601 26 64 4.8 0.0 0.00 0.00 0.00 48 1014.3
20260903140055 25 23 6.4 0.0 0.00 0.00 0.00 50 1014.2
20260903134550 26 69 4.8 0.0 0.00 0.00 0.00 49 1014.3
20260903133047 25 44 4.8 0.0 0.00 0.00 0.00 49 1014.4
20260903131542 26 62 6.4 0.0 0.00 0.00 0.00 49 1014.3
20260903130053 25 75 4.8 0.0 0.00 0.00 0.00 51 1014.3
20260903124532 25 120 4.8 0.0 0.00 0.00 0.00 50 1014.5
20260903123030 25 349 6.4 0.0 0.00 0.00 0.00 50 1014.6
20260903121525 25 62 8.0 0.0 0.00 0.00 0.00 50 1014.3
20260903120021 25 88 6.4 0.0 0.00 0.00 0.00 50 1014.3
20260903114515 25 44 8.0 0.0 0.00 0.00 0.00 50 1014.5
20260903113024 25 124 4.8 0.0 0.00 0.00 0.00 53 1014.7
20260903111507 24 48 9.7 0.0 0.00 0.00 0.00 49 1015.0
20260903110002 24 73 6.4 0.0 0.00 0.00 0.00 54 1015.3
20260903104558 24 123 8.0 0.0 0.00 0.00 0.00 56 1015.4
20260903103053 24 13 6.4 0.0 0.00 0.00 0.00 57 1015.4
20260903101552 24 78 8.0 0.0 0.00 0.00 0.00 57 1015.5
20260903100045 24 73 8.0 0.0 0.00 0.00 0.00 58 1015.5
20260903094551 23 66 6.4 0.0 0.00 0.00 0.00 58 1015.5
20260903093038 24 52 4.8 0.0 0.00 0.00 0.00 58 1015.5
20260903091531 23 54 4.8 0.0 0.00 0.00 0.00 59 1015.6